Location: Unspecified
(0.0000°N, 0.0000°E)
Time: 16:26:30
(UTC+00:00)

Vela 2A - Pass Details

Date: 01 December 2021
Orbit: 18140 x 188451 km, 32.5° (Epoch: 20 January)

Event Time Altitude Azimuth Distance (km) Brightness Sun altitude
Rises 06:08:01 0° 58° (ENE) 94,013 ? 4.4°
Reaches altitude 10° 07:08:00 10° 57° (ENE) 98,863 ? 18.3°
Maximum altitude 13:01:52 56° 359° (N) 124,552 ? 61.8°
Drops below altitude 10° 18:36:12 10° 302° (WNW) 150,109 ? -10.9°
Sets 19:27:53 0° 301° (WNW) 154,062 ? -22.8°
